Regional Weather Roundup
Issued by NWS

Home | Current Version | Previous Version | Graphics & Text | Print | Product List | Glossary On
Versions: 1 2 3 4 5 6 7 8 9 10 11 12 13 14 15 16 17 18 19 20 21 22 23 24 25 26 27 28 29 30 31 32 33 34 35 36 37 38 39 40 41 42 43 44 45 46 47 48 49 50
256
ASUS45 KABQ 210110
RWRNM
NEW MEXICO REGIONAL WEATHER ROUNDUP
NATIONAL WEATHER SERVICE ALBUQUERQUE NM
700 PM MDT FRI OCT 20 2017

NOTE: "FAIR" MEANS FEW OR NO CLOUDS BELOW 12,000 FEET AGL WITH NO
       SIGNIFICANT WEATHER OR OBSTRUCTIONS TO VISION.

      THIS PRODUCT IS RELEASED AS TWO VERSIONS.  ONE VERSION NEAR
      THE TOP OF THE HOUR CONTAINING PRELIMINARY DATA FROM ALBUQUERQUE
      AND OTHER STATIONS.  A FINAL VERSION WITH ADDITIONAL DATA IS
      ISSUED ABOUT 10 MINUTES AFTER THE HOUR.

NMZ501-503-504-510>518-210200-
NORTHWEST PLATEAU/NORTHCENTRAL MOUNTAINS

CITY           SKY/WX    TMP DP  RH WIND       PRES   REMARKS
FARMINGTON     FAIR      67  28  23 SW18      29.71F
LOS ALAMOS     FAIR      60  39  46 S13G18    29.90S
SANTA FE       FAIR      59  40  49 S6        29.86R
TAOS           FAIR      55  33  43 S6        29.90R
ANGEL FIRE     FAIR      51  31  45 S9        29.93S

$$
NMZ402-403-502-505>509-210200-
WESTCENTRAL MOUNTAINS/SOUTHWEST MOUNTAINS

CITY           SKY/WX    TMP DP  RH WIND       PRES   REMARKS
GALLUP         FAIR      64  29  26 SW21G31   29.85S
GRANTS         FAIR      62  27  26 CALM      29.88F
SILVER CITY    FAIR      70  32  24 W10       29.93S

$$
NMZ407-409-411-412-210200-
SOUTHERN DESERTS

CITY           SKY/WX    TMP DP  RH WIND       PRES   REMARKS
DEMING         FAIR      77  34  21 SW9       29.86S
LAS CRUCES     FAIR      71  41  33 W8        29.88S
HOLLOMAN AFB   FAIR      69  48  46 S9        29.86F
ALAMOGORDO     FAIR      64  46  52 SE9       29.87F
T OR C         FAIR      74  32  21 SW8       29.85S

$$
NMZ519>523-210200-
CENTRAL VALLEYS/CENTRAL HIGHLANDS

CITY           SKY/WX    TMP DP  RH WIND       PRES   REMARKS
ALBUQUERQUE    FAIR      69  43  38 S16       29.81S
DOUBLE EAGLE   PTCLDY    57  27  30 S6        29.84S
MORIARTY ARPT  FAIR      62  44  51 S9        29.89R
CLINES CORNERS FAIR      57  40  52 SW17      29.92F
BELEN          FAIR      68  31  25 SW12      29.81S
SOCORRO        FAIR      67  38  34 W3        29.83R

$$
NMZ524>526-539-540-210200-
SOUTHCENTRAL MOUNTAINS

CITY           SKY/WX    TMP DP  RH WIND       PRES   REMARKS
RUIDOSO        FAIR      57  37  47 S16       30.00S

$$
NMZ527>531-210200-
NORTHEAST HIGHLANDS/NORTHEAST PLAINS

CITY           SKY/WX    TMP DP  RH WIND       PRES   REMARKS
LAS VEGAS      FAIR      58  36  43 SW20      29.87F
RATON          FAIR      55  32  41 SW5       29.77R
CLAYTON        FAIR      63  39  41 S14       29.72S

$$
NMZ532>537-210200-
EASTCENTRAL PLAINS

CITY           SKY/WX    TMP DP  RH WIND       PRES   REMARKS
SANTA ROSA     FAIR      67  42  39 SW13      29.80S
TUCUMCARI      FAIR      70  50  49 SW13      29.73S
CANNON AFB     FAIR      68  54  60 S14       29.83S
CLOVIS AIRPORT FAIR      64  51  62 S8        29.84R

$$
NMZ028-029-538-210200-
SOUTHEAST PLAINS

CITY           SKY/WX    TMP DP  RH WIND       PRES   REMARKS
ROSWELL        FAIR      66  45  46 SW8       29.81R
ARTESIA        FAIR      70  50  49 SW12      29.83S
CARLSBAD       FAIR      69  58  67 W6        29.82R
HOBBS          FAIR      66  54  63 S8        29.86R


$$




USA.gov is the U.S. government's official web portal to all federal, state and local government web resources and services.